Other Public Products
Issued by NWS Grand Forks, ND

Home | Current Version | Previous Version | Text Only | Print | Product List | Glossary On
Versions: 1 2 3 4 5 6 7 8 9 10 11 12 13 14 15 16 17 18 19 20 21 22 23 24 25 26 27 28 29 30 31 32 33 34 35 36 37 38 39 40 41 42 43 44 45 46 47 48 49 50
000
FPUS83 KFGF 041410
OPUFGF
PRAIRIE TO PINES WEATHER ROUNDUP
NATIONAL WEATHER SERVICE EASTERN NORTH DAKOTA/GRAND FORKS ND
800 AM CST SUN DEC 04 2016

 **SATELLITE DATA USED TO AUGMENT SKY COVER AT AUTOMATED STATIONS**
 *****  WEATHER ACROSS EASTERN NORTH DAKOTA  *****

CITY           SKY/WX    TMP DP  RH WIND       PRES   REMARKS
GRAND FORKS    CLOUDY    34  32  92 S12       29.70F
GRAND FORKS AF CLOUDY    33  32  96 SW10      29.69F
GRAND CITY NWS   N/A     32 N/A N/A S10         N/A  WCI  24
BUXTON         NOT AVBL
DEVILS LAKE    FLURRIES  26  24  92 W13       29.68S WCI  15
FARGO          LGT SNOW  34  32  92 S13       29.74F FOG     WCI  25
WAHPETON ARPT  PTSUNNY   32  30  93 S12       29.76F WCI  23
$$

 *****  WEATHER ACROSS CENTRAL AND WESTERN NORTH DAKOTA  *****

CITY           SKY/WX    TMP DP  RH WIND       PRES   REMARKS
JAMESTOWN      CLOUDY    34  31  88 W10       29.70S
BISMARCK       CLOUDY    32  29  88 W7        29.76S
MINOT          PTCLDY    27  23  85 W14       29.69F WCI  16
MINOT AFB      CLEAR     24  21  89 W14       29.69R WCI  12
GARRISON         N/A     31  28  89 W14G22    29.71S WCI  21
WILLISTON      CLEAR     19  15  84 SW8       29.76S WCI   9
DICKINSON      CLEAR     21  16  81 W10       29.74F WCI  10
HETTINGER      CLEAR     19  14  81 NW8       29.81S WCI   9
$$

 *****  OTHER OBSERVATIONS NORTHEAST NORTH DAKOTA  *****

CITY           SKY/WX    TMP DP  RH WIND       PRES   REMARKS
WALHALLA       LGT SNOW  32  32 100 S6        29.65F
LANGDON        LGT SNOW  30  30 100 W13       29.63S WCI  20
CAVALIER       LGT SNOW  32  32 100 S10       29.66F WCI  24
GRAFTON        CLOUDY    32  32 100 S10       29.70F FOG     WCI  24
CANDO          CLOUDY    27  27 100 W16       29.68S FOG     WCI  14
FORT TOTTEN      N/A     26  26 100 W8        29.95S WCI  18
ROLLA          CLOUDY    27  27 100 NW13      29.63S WCI  16
RUGBY            N/A     25  25 100 W15       29.67F FOG     WCI  12
 ***** THE ABOVE OBSERVATIONS ARE NON NWS ARE NOT QUALITY
        CONTROLLED AND MAY MIS-REPORT RAIN FOR SNOW...
$$

 *****  OTHER OBSERVATIONS SOUTHEAST NORTH DAKOTA *****

CITY           SKY/WX    TMP DP  RH WIND       PRES   REMARKS
COOPERSTOWN    CLOUDY    32  30  93 SW9       29.69F WCI  24
VALLEY CITY    CLOUDY    32  32 100 SW9       29.72F WCI  24
OAKES          NOT AVBL
GWINNER        CLOUDY    32  32 100 SW12      29.74S WCI  23
SHEYENNE NWR     N/A     31  28  90 SW7       29.95S WCI  24
BUFFALO        NOT AVBL
WYNDMERE       NOT AVBL
 ***** THE ABOVE OBSERVATIONS ARE NON NWS ARE NOT QUALITY
       CONTROLLED AND MAY MIS-REPORT RAIN FOR SNOW...
$$

  *****  WEATHER ACROSS NORTHERN MINNESOTA  *****

CITY           SKY/WX    TMP DP  RH WIND       PRES   REMARKS
FLAG ISLAND    CLOUDY    30  27  86 SE20G25   29.77F WCI  18
WARROAD        CLOUDY    30  27  86 SE10      29.77F WCI  21
ROSEAU         CLOUDY    32  28  86 SE12      29.75F WCI  23
HALLOCK        LGT SNOW  34  32  93 S16       29.69F WCI  23
THF RVR FALLS  FLURRIES  32  31  96 SE15      29.73F WCI  22
HALSTAD          N/A     33  32  98 S14         N/A  WCI  23
FOSSTON        LGT SNOW  30  28  93 SE8       29.75F WCI  23
BAUDETTE       CLOUDY    29  25  85 SE13G20   29.80F WCI  19
WASKISH        FLURRIES  30  28  93 SE6       29.81F WCI  24
CROOKSTON      LGT SNOW  32  32 100 S17       29.73F WCI  21
$$
  *****  WEATHER ACROSS CENTRAL AND WEST MINNESOTA  *****

CITY           SKY/WX    TMP DP  RH WIND       PRES   REMARKS
BEMIDJI        CLOUDY    30  29  97 SE13      29.78F FOG     WCI  20
PARK RAPIDS    CLOUDY    32  29  88 SE14      29.78F FOG     WCI  22
WADENA         CLOUDY    32  30  93 S10       29.79F WCI  24
DETROIT LAKES  LGT SNOW  34  32  93 S12G17    29.76F
MOORHEAD       DRIZZLE   34  30  86 S12       29.75F
FERGUS FALLS   DRIZZLE   34  34 100 S14       29.81F WCI  24
ELBOW LAKE     CLOUDY    32  32 100 S13       29.79F WCI  22
MORRIS MN      MOCLDY    34  32  93 S10       29.79F FOG
STAPLES        CLOUDY    30  30 100 SE7       29.81F FOG     WCI  23
WHEATON        FLURRIES N/A N/A N/A S9G16     29.80F
$$
  *****  WEATHER ELSEWHERE ACROSS MINNESOTA  *****

CITY           SKY/WX    TMP DP  RH WIND       PRES   REMARKS
DULUTH         LGT SNOW  28  27  96 SE14      29.91F VSB 3/4 WCI  17
INTRNTL FALLS  SNOW      27  25  92 SE9       29.85F VSB 1/2 WCI  18
ELY            LGT SNOW  27  25  93 SE8       29.92F WCI  18
CLOQUET        LGT SNOW  27  27 100 E6        29.91F WCI  20
BRAINERD       CLOUDY    31  30  96 SE9       29.85F FOG     WCI  23
HIBBING        LGT SNOW  26  24  92 SE10      29.88F FOG     WCI  16
ALEXANDRIA     CLOUDY    33  32  96 S10       29.80F WCI  25
SAINT CLOUD    CLOUDY    32  32 100 SE10      29.87F FOG     WCI  24
MINNEAPOLIS    CLOUDY    33  30  88 SE8       29.92F
$$

  *****  WEATHER ACROSS SOUTH DAKOTA  *****

CITY           SKY/WX    TMP DP  RH WIND       PRES   REMARKS
SIOUX FALLS    CLOUDY    31  31 100 SW5       29.88R FOG
BROOKINGS      CLEAR     29  27  92 SW9       29.83R WCI  20
WATERTOWN      CLOUDY    29  27  92 SW12      29.80R WCI  19
HURON          CLEAR     27  24  89 SW9       29.86R WCI  18
SISSETON         N/A     33  29  85 E6        29.76F
ABERDEEN       CLEAR     28  24  85 SW8       29.79S WCI  20
MITCHELL       PTCLDY    32  26  78 SW9       29.89S WCI  24
PIERRE         PTCLDY    26  22  84 W9        29.86S WCI  17
MOBRIDGE       PTCLDY    28  20  71 W8        29.79R WCI  20
RAPID CITY     MOCLDY    26  17  68 SW5       29.88S WCI  20
$$

  *****  SOME WEATHER IN NEARBY STATES *****

CITY           SKY/WX    TMP DP  RH WIND       PRES   REMARKS
GLASGOW MT     CLEAR     23  18  81 S6        29.74F WCI  16
GREAT FALLS MT CLOUDY    30  20  66 S14       29.69F WCI  19
CHEYENNE WY    CLOUDY    25   7  46 SW13      29.95S WCI  14
SCOTTSBLUFF NE CLEAR     14   8  77 N7        29.99F WCI   4
OMAHA NE       CLOUDY    34  30  85 SW5       29.98F
DES MOINES IA  LGT SNOW  34  32  92 S8        29.98F VSB 3/4
DAVENPORT IA   SNOW      31  29  92 SE12      30.07F VSB 1/2 WCI  22
CHICAGO IL     CLOUDY    33  26  75 E3        30.15F
EAU CLAIRE WI  LGT SNOW  30  29  96 SE8       29.97F VSB 3/4 WCI  22
LA CROSSE WI   LGT SNOW  34  32  92 SE10      30.01S FOG
$$

  *****  SOME NATIONAL WEATHER *****

CITY           SKY/WX    TMP DP  RH WIND       PRES   REMARKS
LA GUARDIA NY  PTSUNNY   42  23  46 NW17      30.24R
RALEIGH NC     CLOUDY    42  29  59 E7        30.31S
ATLANTA GA     LGT RAIN  45  45 100 E14       30.13F FOG
NEW ORLEANS LA CLOUDY    63  63 100 CALM      29.90R
OKLAHOMA CITY  CLOUDY    44  42  93 N7        30.04R
ALBUQUERQUE NM CLOUDY    29  12  49 N7        30.15R WCI  22
SALT LAKE CITY PTCLDY    27  19  72 SE12      30.18S WCI  17
LOS ANGELES CA CLEAR     47  32  56 SE3       30.07R
BOISE ID       CLOUDY    41  30  65 SE10      30.02S
SEATTLE WA     RAIN      41  39  93 E12       29.98S FOG
$$

*** WEATHER ACROSS MANITOBA...SASKATCHEWAN AND ONTARIO ***
                ***ONTARIO***

CITY           SKY/WX    TMP DP  RH WIND       PRES   REMARKS
GERALDTON      FLURRIES  21  19  93 E8        30.08F WCI  12
THUNDER BAY    CLOUDY    32  25  74 S6        30.03F
SIOUX LOOKOUT  LGT SNOW  23  19  86 SE7       29.90F WCI  15
TORONTO        PTSUNNY   34  27  75 NE5       30.26R
BIG TROUT LK   CLOUDY    19  19 100 S9        29.97F WCI   9
PICKLE LAKE    MOCLDY    19  18  93 SE8       29.95F WCI   9
DRYDEN         CLOUDY    27  25  93 SE8       29.86F WCI  18
KENORA         LGT SNOW  27  25  93 SE12      29.80F WCI  16
$$
                *** MANITOBA***

CITY           SKY/WX    TMP DP  RH WIND       PRES   REMARKS
BRANDON        LGT SNOW  27  25  93 W9        29.64S WCI  17
DAUPHIN        LGT SNOW  27  27 100 SW3       29.66F
ISLAND LAKE    NOT AVBL
PILOT MOUND      N/A     28  27  93 W5          N/A  WCI  23
THE PAS        CLOUDY    27  25  93 SW3       29.65S
THOMPSON       LGT SNOW  21  19  93 SE3       29.73F
WINNIPEG       FLURRIES  32  30  93 SE14      29.69F WCI  22
LYNN LAKE      CLOUDY    19  19 100 SE7       29.63F WCI  10
CHURCHILL      MOCLDY     7   3  85 SE14      29.90F WCI -10
GILLAM         CLOUDY    14  12  92 E3        29.85F
$$
                ***SASKATCHEWAN***

CITY           SKY/WX    TMP DP  RH WIND       PRES   REMARKS
ESTEVAN        FLURRIES  27  25  93 NW15      29.70S WCI  15
KINDERSLEY     MOCLDY    14  12  92 CALM      29.64F
LLOYDMINSTER   PTCLDY    16  12  86 W10       29.61S WCI   3
PRINCE ALBERT  CLOUDY    21  19  93 W7        29.63F FOG     WCI  13
REGINA         FOG       18  18 100 CALM      29.69S VSB 1/4
YORKTON        CLOUDY    27  25  93 W3        29.66S FOC1F1C2F2C3F3C4F4C5F5C6F6C7F7C8F8C9F9CaFaCbFbCcFcCdFdCe!



USA.gov is the U.S. government's official web portal to all federal, state and local government web resources and services.